• Join FlightAware (Why Join?)
  • Login
  • US Flag 
07:03PM EDT


 

Airport Tracker/Info


-or-


 

Live Flight TrackerFlight Track Log ✈ XOJ552 ✈ 21-Aug-2013 ✈ MMUN / CUN - KLAX

Flight Track Log - Related Links

Times and Time Zones

All times are in EDT time to prevent confusion due to time zone crossing. See the XOJ552 flight status page for this flight to view local times or setup timezone preferences in your user account.

Time Position Orientation Groundspeed Altitude Reporting Facility
EDT Latitude Longitude Course Direction KTS MPH feet Rate Location/Type
05:11PM 32.4375 -115.2511 302° West 456 525 42,700  Level Los Angeles Center
05:13PM 32.5114 -115.3917 302° West 460 529 41,600 -840 Descending Los Angeles Center
05:14PM 32.5803 -115.5192 303° West 461 531 41,000 -300 Descending Los Angeles Center
05:15PM 32.6514 -115.6489 303° West 467 537 41,000 -180 Level Los Angeles Center
05:16PM 32.7339 -115.8069 302° West 471 542 40,700 -1,260 Descending Los Angeles Center
05:17PM 33.3745 -116.2178 302° West  Level Estimated
05:17PM 32.8042 -115.9369 303° West 469 540 38,500  Level Los Angeles Center
05:18PM 32.8722 -116.0669 302° West 467 537 35,700 -2,760 Descending Los Angeles Center
05:19PM 32.9411 -116.1953 303° West 467 537 32,800 -3,000 Descending Los Angeles Center
05:20PM 33.0186 -116.3431 302° West 482 555 29,600 -3,120 Descending Los Angeles Center
05:21PM 33.0928 -116.4872 302° West 482 555 26,300 -2,820 Descending Los Angeles Center
05:22PM 33.1450 -116.6206 295° West 456 525 23,200 -2,700 Descending Los Angeles Center
05:23PM 33.1667 -116.7914 279° West 440 506 20,300 -2,520 Descending Los Angeles Center
05:24PM 33.1858 -116.9511 278° West 411 473 18,100 -1,920 Descending Los Angeles Center
05:25PM 33.2014 -117.0856 278° West 410 472 16,300 -1,680 Descending Los Angeles Center
05:26PM 33.2167 -117.2097 278° West 395 455 14,700 -1,560 Descending Los Angeles Center
05:27PM 33.2317 -117.3331 278° West 381 438 13,100 -1,320 Descending Los Angeles Center
05:28PM 33.2444 -117.4550 277° West 372 428 12,000 -540 Descending Los Angeles Center
05:29PM 33.2581 -117.6053 276° West 380 437 12,000 -180 Level Los Angeles Center
05:30PM 33.3272 -117.6986 312° West 374 430 11,700 -720 Descending Los Angeles Center
05:31PM 33.3881 -117.7747 314° West 329 379 10,600 -1,020 Descending Los Angeles Center
05:32PM 33.4472 -117.8514 313° West 316 364 9,600 -960 Descending Los Angeles Center
05:33PM 33.5069 -117.9258 314° West 312 359 8,600 -1,020 Descending Los Angeles Center
05:34PM 33.6003 -117.9664 340° North 302 348 7,500 -780 Descending Los Angeles Center
05:36PM 33.6744 -118.0011 339° North 294 338 7,000 -240 Descending Los Angeles Center
05:37PM 33.7333 -118.0333 336° Northwest 226 260 7,000  Level Southern California TRACON
05:38PM 33.8000 -118.0667 337° Northwest 230 265 7,000  Level Southern California TRACON
05:39PM 33.8500 -118.0167 40° Northeast 229 264 7,000 -120 Level Southern California TRACON
05:40PM 33.9000 -117.9833 29° Northeast 239 275 6,800 -660 Descending Southern California TRACON
05:40PM 33.9500 -118.0167 331° Northwest 238 274 5,800 -1,140 Descending Southern California TRACON
05:42PM 33.9667 -118.1000 284° West 222 255 4,600 -1,020 Descending Southern California TRACON
05:42PM 33.9667 -118.1500 270° West 191 220 3,800 -900 Descending Southern California TRACON
05:43PM 33.9500 -118.2167 253° West 178 205 3,000 -600 Descending Southern California TRACON
05:44PM 33.9550 -118.2183 345° North 183 211 2,900 -960 Descending Los Angeles Center
05:45PM 33.9461 -118.3008 263° West 180 207 1,500 -1,080 Descending Los Angeles Center
05:46PM 33.9417 -118.3483 264° West 158 182 700 -600 Descending Los Angeles Center
05:47PM 33.9381 -118.3847 263° West 127 146 300 -420 Descending Los Angeles Center
05:49PM 33.9333 -118.4000 276° West  Level FlightAware Approximate
05:56PM 33.9425 -118.4081 276° West  Level Estimated